| time (UTC) | temp F | wind direction | speed knots | gust knots | rain 1hr in | rain 24hr in | rain mn in | humidity % | barometer mb |
| 20260506033005 | 55 | 228 | 4.3 | 10.4 | 0.00 | 0.00 | 0.00 | 83 | 1099.8 |
| 20260506032504 | 55 | 225 | 4.3 | 11.3 | 0.00 | 0.00 | 0.00 | 82 | 1099.8 |
| 20260506032005 | 56 | 262 | 4.3 | 7.8 | 0.00 | 0.00 | 0.00 | 82 | 1099.8 |
| 20260506031504 | 56 | 257 | 5.2 | 13.0 | 0.00 | 0.00 | 0.00 | 83 | 1099.8 |
| 20260506030005 | 55 | 229 | 4.3 | 8.7 | 0.00 | 0.00 | 0.00 | 82 | 1099.8 |
| 20260506025505 | 55 | 229 | 4.3 | 7.8 | 0.00 | 0.00 | 0.00 | 82 | 1099.8 |
| 20260506025005 | 55 | 229 | 5.2 | 15.6 | 0.00 | 0.00 | 0.00 | 82 | 1099.8 |
| 20260506024505 | 55 | 231 | 4.3 | 13.9 | 0.00 | 0.00 | 0.00 | 82 | 1099.8 |
| 20260506024005 | 55 | 267 | 4.3 | 8.7 | 0.00 | 0.00 | 0.00 | 81 | 1099.8 |
| 20260506023504 | 54 | 267 | 1.7 | 7.8 | 0.00 | 0.00 | 0.00 | 81 | 1099.8 |
| 20260506023005 | 54 | 252 | 3.5 | 10.4 | 0.00 | 0.00 | 0.00 | 81 | 1099.8 |
| 20260506022504 | 54 | 222 | 4.3 | 7.8 | 0.00 | 0.00 | 0.00 | 80 | 1099.8 |
| 20260506022005 | 54 | 243 | 2.6 | 7.0 | 0.00 | 0.00 | 0.00 | 80 | 1099.8 |
| 20260506021505 | 54 | 243 | 3.5 | 7.8 | 0.00 | 0.00 | 0.00 | 80 | 1099.8 |
| 20260506021004 | 54 | 237 | 2.6 | 7.8 | 0.00 | 0.00 | 0.00 | 80 | 1099.8 |
| 20260506020504 | 54 | 237 | 4.3 | 10.4 | 0.00 | 0.00 | 0.00 | 80 | 1099.8 |
| 20260506020004 | 54 | 237 | 4.3 | 10.4 | 0.00 | 0.00 | 0.00 | 80 | 1099.8 |
| 20260506015504 | 54 | 183 | 3.5 | 12.2 | 0.00 | 0.00 | 0.00 | 79 | 1099.8 |
| 20260506014504 | 54 | 229 | 3.5 | 7.0 | 0.00 | 0.00 | 0.00 | 79 | 1099.8 |
| 20260506014005 | 55 | 218 | 2.6 | 10.4 | 0.00 | 0.00 | 0.00 | 78 | 1099.8 |
| 20260506013506 | 55 | 215 | 3.5 | 10.4 | 0.00 | 0.00 | 0.00 | 78 | 1099.8 |
| 20260506013004 | 55 | 208 | 4.3 | 12.2 | 0.00 | 0.00 | 0.00 | 78 | 1099.8 |
| 20260506012004 | 55 | 252 | 1.7 | 7.8 | 0.00 | 0.00 | 0.00 | 79 | 1099.8 |
| 20260506011504 | 55 | 252 | 4.3 | 7.0 | 0.00 | 0.00 | 0.00 | 79 | 1099.8 |
| 20260506011005 | 55 | 252 | 3.5 | 7.8 | 0.00 | 0.00 | 0.00 | 79 | 1099.8 |
| 20260506010504 | 55 | 252 | 2.6 | 7.0 | 0.00 | 0.00 | 0.00 | 80 | 1099.8 |
| 20260506010004 | 54 | 252 | 4.3 | 7.8 | 0.00 | 0.00 | 0.00 | 80 | 1099.8 |
| 20260506005504 | 54 | 252 | 2.6 | 6.1 | 0.00 | 0.00 | 0.00 | 80 | 1099.8 |
| 20260506005004 | 54 | 252 | 2.6 | 6.1 | 0.00 | 0.00 | 0.00 | 80 | 1099.8 |
| 20260506004505 | 54 | 252 | 2.6 | 8.7 | 0.00 | 0.00 | 0.00 | 81 | 1099.8 |
| 20260506003505 | 54 | 208 | 4.3 | 11.3 | 0.00 | 0.00 | 0.00 | 81 | 1099.8 |
| 20260506003005 | 55 | 248 | 4.3 | 11.3 | 0.00 | 0.00 | 0.00 | 80 | 1099.8 |
| 20260506002505 | 55 | 207 | 4.3 | 12.2 | 0.00 | 0.00 | 0.00 | 80 | 1099.8 |
| 20260506002005 | 55 | 233 | 4.3 | 11.3 | 0.00 | 0.00 | 0.00 | 80 | 1099.8 |
| 20260506001504 | 55 | 189 | 4.3 | 12.2 | 0.00 | 0.00 | 0.00 | 80 | 1099.8 |
| 20260506000505 | 55 | 232 | 3.5 | 10.4 | 0.00 | 0.00 | 0.00 | 79 | 1099.8 |
| 20260506000004 | 55 | 187 | 5.2 | 13.9 | 0.00 | 0.00 | 0.00 | 79 | 1099.8 |
| 20260505235504 | 55 | 234 | 2.6 | 7.8 | 0.00 | 0.00 | 0.00 | 79 | 1099.8 |
| 20260505234505 | 56 | 222 | 5.2 | 11.3 | 0.00 | 0.00 | 0.00 | 79 | 1099.8 |
| 20260505233504 | 56 | 191 | 5.2 | 12.2 | 0.00 | 0.00 | 0.00 | 79 | 1099.8 |
| 20260505233005 | 56 | 231 | 4.3 | 13.0 | 0.00 | 0.00 | 0.00 | 79 | 1099.8 |
| 20260505232505 | 56 | 208 | 5.2 | 13.0 | 0.00 | 0.00 | 0.00 | 79 | 1099.8 |
| 20260505232005 | 56 | 224 | 6.1 | 12.2 | 0.00 | 0.00 | 0.00 | 79 | 1099.8 |
| 20260505230504 | 56 | 257 | 4.3 | 8.7 | 0.00 | 0.00 | 0.00 | 79 | 1099.8 |
| 20260505230004 | 56 | 170 | 6.1 | 15.6 | 0.00 | 0.00 | 0.00 | 79 | 1099.8 |
| 20260505225504 | 56 | 210 | 5.2 | 10.4 | 0.00 | 0.00 | 0.00 | 79 | 1099.8 |
| 20260505225006 | 56 | 194 | 5.2 | 17.4 | 0.00 | 0.00 | 0.00 | 78 | 1099.8 |
| 20260505224006 | 56 | 231 | 3.5 | 7.8 | 0.00 | 0.00 | 0.00 | 78 | 1099.8 |
| 20260505223504 | 56 | 170 | 5.2 | 10.4 | 0.00 | 0.00 | 0.00 | 78 | 1099.8 |
| 20260505223004 | 57 | 229 | 5.2 | 17.4 | 0.00 | 0.00 | 0.00 | 77 | 1099.8 |
| 20260505222004 | 57 | 231 | 2.6 | 13.0 | 0.00 | 0.00 | 0.00 | 77 | 1099.8 |
| 20260505221504 | 57 | 228 | 4.3 | 12.2 | 0.00 | 0.00 | 0.00 | 76 | 1099.8 |
| 20260505221005 | 57 | 204 | 6.1 | 17.4 | 0.00 | 0.00 | 0.00 | 76 | 1099.8 |
| 20260505220505 | 58 | 219 | 5.2 | 18.2 | 0.00 | 0.00 | 0.00 | 76 | 1099.8 |
| 20260505220005 | 58 | 221 | 7.8 | 17.4 | 0.00 | 0.00 | 0.00 | 76 | 1099.8 |
| 20260505215504 | 58 | 218 | 3.5 | 13.0 | 0.00 | 0.00 | 0.00 | 76 | 1099.8 |
| 20260505215005 | 58 | 213 | 5.2 | 11.3 | 0.00 | 0.00 | 0.00 | 76 | 1099.8 |
| 20260505214504 | 58 | 217 | 6.1 | 15.6 | 0.00 | 0.00 | 0.00 | 76 | 1099.8 |
| 20260505214005 | 58 | 208 | 7.0 | 12.2 | 0.00 | 0.00 | 0.00 | 75 | 1099.8 |
| 20260505213504 | 58 | 213 | 4.3 | 17.4 | 0.00 | 0.00 | 0.00 | 76 | 1099.8 |
| 20260505213005 | 58 | 231 | 8.7 | 17.4 | 0.00 | 0.00 | 0.00 | 75 | 1099.8 |
| 20260505212505 | 58 | 229 | 6.1 | 20.9 | 0.00 | 0.00 | 0.00 | 75 | 1099.8 |
| 20260505211505 | 59 | 210 | 3.5 | 11.3 | 0.00 | 0.00 | 0.00 | 75 | 1099.8 |
| 20260505211004 | 58 | 222 | 5.2 | 13.0 | 0.00 | 0.00 | 0.00 | 76 | 1099.8 |
| 20260505210505 | 58 | 204 | 5.2 | 13.9 | 0.00 | 0.00 | 0.00 | 75 | 1099.8 |
| 20260505210004 | 59 | 241 | 7.8 | 20.9 | 0.00 | 0.00 | 0.00 | 74 | 1099.8 |
| 20260505205504 | 58 | 219 | 6.1 | 17.4 | 0.00 | 0.00 | 0.00 | 75 | 1099.8 |
| 20260505205004 | 58 | 198 | 6.1 | 21.7 | 0.00 | 0.00 | 0.00 | 76 | 1099.8 |
| 20260505204506 | 58 | 223 | 7.8 | 20.0 | 0.00 | 0.00 | 0.00 | 75 | 1099.8 |
| 20260505204004 | 58 | 218 | 9.6 | 19.1 | 0.00 | 0.00 | 0.00 | 75 | 1099.8 |
| 20260505203504 | 58 | 196 | 7.8 | 22.6 | 0.00 | 0.00 | 0.00 | 75 | 1099.8 |
| 20260505203004 | 59 | 217 | 6.1 | 20.9 | 0.00 | 0.00 | 0.00 | 75 | 1099.8 |
| 20260505202005 | 59 | 223 | 8.7 | 22.6 | 0.00 | 0.00 | 0.00 | 74 | 1099.8 |
| 20260505201504 | 59 | 227 | 7.8 | 15.6 | 0.00 | 0.00 | 0.00 | 74 | 1099.8 |
| 20260505201004 | 59 | 213 | 5.2 | 13.0 | 0.00 | 0.00 | 0.00 | 75 | 1099.8 |
| 20260505200504 | 59 | 205 | 8.7 | 20.9 | 0.00 | 0.00 | 0.00 | 74 | 1099.8 |
| 20260505195505 | 60 | 221 | 7.8 | 20.0 | 0.00 | 0.00 | 0.00 | 73 | 1099.8 |
| 20260505195004 | 59 | 267 | 7.0 | 21.7 | 0.00 | 0.00 | 0.00 | 74 | 1099.8 |
| 20260505194004 | 59 | 216 | 10.4 | 22.6 | 0.00 | 0.00 | 0.00 | 73 | 1099.8 |
| 20260505193505 | 60 | 245 | 7.8 | 15.6 | 0.00 | 0.00 | 0.00 | 74 | 1099.8 |
| 20260505193005 | 60 | 249 | 8.7 | 13.9 | 0.00 | 0.00 | 0.00 | 74 | 1099.8 |
| 20260505192004 | 60 | 218 | 10.4 | 17.4 | 0.00 | 0.00 | 0.00 | 72 | 1099.8 |
| 20260505191504 | 60 | 240 | 6.1 | 15.6 | 0.00 | 0.00 | 0.00 | 73 | 1099.8 |
| 20260505191005 | 60 | 221 | 6.1 | 15.6 | 0.00 | 0.00 | 0.00 | 73 | 1099.8 |
| 20260505190504 | 60 | 212 | 8.7 | 22.6 | 0.00 | 0.00 | 0.00 | 73 | 1099.8 |
| 20260505190004 | 61 | 229 | 8.7 | 18.2 | 0.00 | 0.00 | 0.00 | 72 | 1099.8 |
| 20260505185504 | 60 | 207 | 4.3 | 17.4 | 0.00 | 0.00 | 0.00 | 73 | 1099.8 |
| 20260505185004 | 60 | 199 | 7.8 | 20.0 | 0.00 | 0.00 | 0.00 | 73 | 1099.8 |
| 20260505184504 | 60 | 231 | 5.2 | 19.1 | 0.00 | 0.00 | 0.00 | 73 | 1099.8 |
| 20260505183005 | 60 | 205 | 7.0 | 19.1 | 0.00 | 0.00 | 0.00 | 73 | 1099.8 |
| 20260505182504 | 60 | 221 | 7.8 | 17.4 | 0.00 | 0.00 | 0.00 | 73 | 1099.8 |
| 20260505181505 | 59 | 192 | 7.0 | 21.7 | 0.00 | 0.00 | 0.00 | 74 | 1099.8 |
| 20260505181004 | 60 | 201 | 7.8 | 20.9 | 0.00 | 0.00 | 0.00 | 73 | 1099.8 |
| 20260505180504 | 60 | 212 | 7.8 | 13.9 | 0.00 | 0.00 | 0.00 | 73 | 1099.8 |
| 20260505180005 | 60 | 222 | 7.8 | 17.4 | 0.00 | 0.00 | 0.00 | 73 | 1099.8 |
| 20260505175504 | 60 | 201 | 7.0 | 19.1 | 0.00 | 0.00 | 0.00 | 74 | 1099.8 |
| 20260505175005 | 60 | 200 | 7.8 | 17.4 | 0.00 | 0.00 | 0.00 | 73 | 1099.8 |
| 20260505174505 | 60 | 187 | 5.2 | 17.4 | 0.00 | 0.00 | 0.00 | 73 | 1099.8 |
| 20260505174004 | 60 | 239 | 8.7 | 20.0 | 0.00 | 0.00 | 0.00 | 73 | 1099.8 |
| 20260505173504 | 60 | 197 | 4.3 | 17.4 | 0.00 | 0.00 | 0.00 | 73 | 1099.8 |
| 20260505172504 | 60 | 223 | 6.1 | 17.4 | 0.00 | 0.00 | 0.00 | 73 | 1099.8 |
| 20260505172005 | 60 | 276 | 5.2 | 11.3 | 0.00 | 0.00 | 0.00 | 73 | 1099.8 |
| 20260505171504 | 60 | 226 | 6.1 | 17.4 | 0.00 | 0.00 | 0.00 | 74 | 1099.8 |
| 20260505171005 | 60 | 212 | 6.1 | 13.9 | 0.00 | 0.00 | 0.00 | 74 | 1099.8 |
| 20260505170504 | 60 | 202 | 8.7 | 17.4 | 0.00 | 0.00 | 0.00 | 74 | 1099.8 |
| 20260505170005 | 60 | 181 | 7.8 | 13.9 | 0.00 | 0.00 | 0.00 | 74 | 1099.8 |
| 20260505165505 | 60 | 207 | 8.7 | 17.4 | 0.00 | 0.00 | 0.00 | 73 | 1099.8 |
| 20260505165004 | 60 | 228 | 7.0 | 15.6 | 0.00 | 0.00 | 0.00 | 74 | 1099.8 |
| 20260505164504 | 60 | 230 | 6.1 | 15.6 | 0.00 | 0.00 | 0.00 | 73 | 1099.8 |
| 20260505164005 | 60 | 223 | 5.2 | 12.2 | 0.00 | 0.00 | 0.00 | 74 | 1099.8 |
| 20260505163504 | 60 | 242 | 5.2 | 13.0 | 0.00 | 0.00 | 0.00 | 73 | 1099.8 |
| 20260505163005 | 60 | 192 | 7.0 | 15.6 | 0.00 | 0.00 | 0.00 | 73 | 1099.8 |
| 20260505162505 | 60 | 207 | 7.8 | 19.1 | 0.00 | 0.00 | 0.00 | 73 | 1099.8 |
| 20260505162004 | 60 | 187 | 7.8 | 19.1 | 0.00 | 0.00 | 0.00 | 74 | 1099.8 |
| 20260505161005 | 60 | 203 | 7.8 | 13.9 | 0.00 | 0.00 | 0.00 | 74 | 1099.8 |
| 20260505160504 | 59 | 216 | 11.3 | 22.6 | 0.00 | 0.00 | 0.00 | 73 | 1099.8 |
| 20260505153005 | 60 | 220 | 6.1 | 18.2 | 0.00 | 0.00 | 0.00 | 74 | 1099.8 |
| 20260505152504 | 60 | 221 | 6.1 | 13.9 | 0.00 | 0.00 | 0.00 | 74 | 1099.8 |
| 20260505152004 | 59 | 238 | 7.0 | 20.9 | 0.00 | 0.00 | 0.00 | 75 | 1099.8 |
| 20260505151505 | 60 | 176 | 7.0 | 20.9 | 0.00 | 0.00 | 0.00 | 74 | 1099.8 |
| 20260505151005 | 60 | 181 | 6.1 | 19.1 | 0.00 | 0.00 | 0.00 | 73 | 1099.8 |
| 20260505150504 | 61 | 216 | 5.2 | 13.0 | 0.00 | 0.00 | 0.00 | 74 | 1099.8 |
| 20260505140504 | 59 | 217 | 5.2 | 17.4 | 0.00 | 0.00 | 0.00 | 76 | 1099.8 |
| 20260505125004 | 57 | 219 | 4.3 | 13.9 | 0.00 | 0.00 | 0.00 | 78 | 1099.8 |
| 20260505124504 | 57 | 199 | 7.0 | 15.6 | 0.00 | 0.00 | 0.00 | 78 | 1099.8 |
| 20260505124004 | 57 | 208 | 5.2 | 10.4 | 0.00 | 0.00 | 0.00 | 78 | 1099.8 |
| 20260505123504 | 57 | 256 | 5.2 | 10.4 | 0.00 | 0.00 | 0.00 | 78 | 1099.8 |
| 20260505123005 | 56 | 228 | 5.2 | 17.4 | 0.00 | 0.00 | 0.00 | 78 | 1099.8 |
| 20260505122504 | 56 | 216 | 7.8 | 17.4 | 0.00 | 0.00 | 0.00 | 78 | 1099.8 |
| 20260505122004 | 56 | 210 | 5.2 | 10.4 | 0.00 | 0.00 | 0.00 | 79 | 1099.8 |
| 20260505121504 | 56 | 258 | 3.5 | 12.2 | 0.00 | 0.00 | 0.00 | 79 | 1099.8 |
| 20260505121004 | 56 | 195 | 5.2 | 13.9 | 0.00 | 0.00 | 0.00 | 79 | 1099.8 |
| 20260505120505 | 56 | 223 | 5.2 | 13.9 | 0.00 | 0.00 | 0.00 | 79 | 1099.8 |
| 20260505120005 | 56 | 208 | 3.5 | 10.4 | 0.00 | 0.00 | 0.00 | 80 | 1099.8 |
| 20260505115506 | 56 | 212 | 5.2 | 13.9 | 0.00 | 0.00 | 0.00 | 80 | 1099.8 |
| 20260505115005 | 55 | 224 | 5.2 | 13.0 | 0.00 | 0.00 | 0.00 | 81 | 1099.8 |
| 20260505114504 | 55 | 240 | 2.6 | 8.7 | 0.00 | 0.00 | 0.00 | 81 | 1099.8 |
| 20260505114004 | 55 | 229 | 5.2 | 11.3 | 0.00 | 0.00 | 0.00 | 81 | 1099.8 |
| 20260505113505 | 55 | 235 | 4.3 | 12.2 | 0.00 | 0.00 | 0.00 | 82 | 1099.8 |
| 20260505113005 | 54 | 239 | 5.2 | 10.4 | 0.00 | 0.00 | 0.00 | 82 | 1099.8 |
| 20260505112504 | 54 | 239 | 2.6 | 5.2 | 0.00 | 0.00 | 0.00 | 83 | 1099.8 |
| 20260505112004 | 54 | 239 | 5.2 | 10.4 | 0.00 | 0.00 | 0.00 | 83 | 1099.8 |
| 20260505111506 | 54 | 238 | 2.6 | 7.0 | 0.00 | 0.00 | 0.00 | 83 | 1099.8 |
| 20260505102005 | 50 | 229 | 1.7 | 5.2 | 0.00 | 0.00 | 0.00 | 88 | 1099.8 |
| 20260505101504 | 50 | 229 | 2.6 | 7.0 | 0.00 | 0.00 | 0.00 | 88 | 1099.8 |
| 20260505101005 | 50 | 229 | 0.9 | 6.1 | 0.00 | 0.00 | 0.00 | 88 | 1099.8 |
| 20260505100504 | 50 | 229 | 1.7 | 7.8 | 0.00 | 0.00 | 0.00 | 88 | 1099.8 |
| 20260505100004 | 50 | 229 | 2.6 | 5.2 | 0.00 | 0.00 | 0.00 | 88 | 1099.8 |
| 20260505095505 | 50 | 229 | 0.9 | 4.3 | 0.00 | 0.00 | 0.00 | 88 | 1099.8 |
| 20260505095005 | 50 | 229 | 2.6 | 7.0 | 0.00 | 0.00 | 0.00 | 88 | 1099.8 |
| 20260505094504 | 49 | 229 | 0.9 | 4.3 | 0.00 | 0.00 | 0.00 | 88 | 1099.8 |
| 20260505094005 | 49 | 229 | 2.6 | 6.1 | 0.00 | 0.00 | 0.00 | 88 | 1099.8 |
| 20260505093504 | 50 | 229 | 1.7 | 6.1 | 0.00 | 0.00 | 0.00 | 88 | 1099.8 |
| 20260505093005 | 50 | 229 | 0.9 | 5.2 | 0.00 | 0.00 | 0.00 | 88 | 1099.8 |
| 20260505092505 | 50 | 229 | 2.6 | 7.0 | 0.00 | 0.00 | 0.00 | 88 | 1099.8 |
| 20260505091504 | 50 | 229 | 2.6 | 5.2 | 0.00 | 0.00 | 0.00 | 88 | 1099.8 |
| 20260505091005 | 50 | 229 | 1.7 | 4.3 | 0.00 | 0.00 | 0.00 | 88 | 1099.8 |
| 20260505090505 | 50 | 229 | 1.7 | 7.0 | 0.00 | 0.00 | 0.00 | 88 | 1099.8 |
| 20260505090005 | 50 | 229 | 0.9 | 5.2 | 0.00 | 0.00 | 0.00 | 88 | 1099.8 |
| 20260505085504 | 50 | 229 | 2.6 | 6.1 | 0.00 | 0.00 | 0.00 | 89 | 1099.8 |
| 20260505085005 | 50 | 207 | 1.7 | 7.8 | 0.00 | 0.00 | 0.00 | 89 | 1099.8 |
| 20260505084504 | 50 | 177 | 1.7 | 5.2 | 0.00 | 0.00 | 0.00 | 89 | 1099.8 |
| 20260505084004 | 50 | 192 | 1.7 | 4.3 | 0.00 | 0.00 | 0.00 | 89 | 1099.8 |
| 20260505083505 | 50 | 198 | 0.9 | 7.0 | 0.00 | 0.00 | 0.00 | 89 | 1099.8 |
| 20260505082004 | 50 | 225 | 1.7 | 7.0 | 0.00 | 0.00 | 0.00 | 89 | 1099.8 |
| 20260505081504 | 50 | 215 | 0.9 | 8.7 | 0.00 | 0.00 | 0.00 | 89 | 1099.8 |
| 20260505081004 | 50 | 212 | 2.6 | 7.0 | 0.00 | 0.00 | 0.00 | 89 | 1099.8 |
| 20260505080504 | 50 | 209 | 1.7 | 6.1 | 0.00 | 0.00 | 0.00 | 89 | 1099.8 |
| 20260505080004 | 50 | 199 | 0.9 | 4.3 | 0.00 | 0.00 | 0.00 | 89 | 1099.8 |
| 20260505075504 | 50 | 191 | 1.7 | 11.3 | 0.00 | 0.00 | 0.00 | 89 | 1099.8 |
| 20260505075005 | 50 | 225 | 1.7 | 4.3 | 0.00 | 0.00 | 0.00 | 89 | 1099.8 |
| 20260505074504 | 50 | 225 | 0.9 | 2.6 | 0.00 | 0.00 | 0.00 | 89 | 1099.8 |
| 20260505074004 | 49 | 225 | 1.7 | 6.1 | 0.00 | 0.00 | 0.00 | 89 | 1099.8 |
| 20260505073504 | 49 | 225 | 0.9 | 6.1 | 0.00 | 0.00 | 0.00 | 88 | 1099.8 |
| 20260505073004 | 49 | 225 | 0.0 | 4.3 | 0.00 | 0.00 | 0.00 | 88 | 1099.8 |
| 20260505072505 | 49 | 225 | 1.7 | 4.3 | 0.00 | 0.00 | 0.00 | 88 | 1099.8 |
| 20260505072004 | 49 | 225 | 1.7 | 6.1 | 0.00 | 0.00 | 0.00 | 88 | 1099.8 |
| 20260505071504 | 49 | 225 | 1.7 | 6.1 | 0.00 | 0.00 | 0.00 | 88 | 1099.8 |
| 20260505071005 | 49 | 225 | 2.6 | 7.0 | 0.00 | 0.00 | 0.00 | 88 | 1099.8 |
| 20260505070504 | 50 | 225 | 1.7 | 5.2 | 0.00 | 0.00 | 0.00 | 88 | 1099.8 |
| 20260505065504 | 50 | 225 | 3.5 | 5.2 | 0.00 | 0.00 | 0.00 | 88 | 1099.8 |
| 20260505065005 | 50 | 225 | 0.9 | 2.6 | 0.00 | 0.00 | 0.00 | 88 | 1099.8 |
| 20260505064504 | 50 | 225 | 0.9 | 4.3 | 0.00 | 0.00 | 0.00 | 88 | 1099.8 |
| 20260505064005 | 50 | 225 | 0.9 | 4.3 | 0.00 | 0.00 | 0.00 | 88 | 1099.8 |
| 20260505063505 | 50 | 225 | 2.6 | 7.0 | 0.00 | 0.00 | 0.00 | 88 | 1099.8 |
| 20260505063004 | 50 | 225 | 0.9 | 2.6 | 0.00 | 0.00 | 0.00 | 88 | 1099.8 |
| 20260505062505 | 50 | 225 | 0.9 | 4.3 | 0.00 | 0.00 | 0.00 | 88 | 1099.8 |
| 20260505062004 | 50 | 225 | 0.9 | 2.6 | 0.00 | 0.00 | 0.00 | 88 | 1099.8 |
| 20260505061504 | 50 | 225 | 1.7 | 2.6 | 0.00 | 0.00 | 0.00 | 88 | 1099.8 |
| 20260505061005 | 50 | 225 | 1.7 | 6.1 | 0.00 | 0.00 | 0.00 | 87 | 1099.8 |
| 20260505060505 | 50 | 225 | 2.6 | 5.2 | 0.00 | 0.00 | 0.00 | 87 | 1099.8 |
| 20260505060005 | 50 | 225 | 0.0 | 2.6 | 0.00 | 0.00 | 0.00 | 87 | 1099.8 |
| 20260505055505 | 50 | 225 | 1.7 | 5.2 | 0.00 | 0.00 | 0.00 | 87 | 1099.8 |
| 20260505055004 | 50 | 225 | 0.9 | 6.1 | 0.00 | 0.00 | 0.00 | 87 | 1099.8 |
| 20260505054505 | 50 | 225 | 0.9 | 5.2 | 0.00 | 0.00 | 0.00 | 87 | 1099.8 |
| 20260505054004 | 50 | 225 | 0.9 | 2.6 | 0.00 | 0.00 | 0.00 | 87 | 1099.8 |
| 20260505053505 | 50 | 225 | 0.9 | 2.6 | 0.00 | 0.00 | 0.00 | 86 | 1099.8 |
| 20260505052505 | 50 | 225 | 0.9 | 7.8 | 0.00 | 0.00 | 0.00 | 86 | 1099.8 |
| 20260505052004 | 50 | 225 | 0.9 | 7.8 | 0.00 | 0.00 | 0.00 | 86 | 1099.8 |
| 20260505051504 | 50 | 225 | 1.7 | 7.0 | 0.00 | 0.00 | 0.00 | 86 | 1099.8 |
| 20260505051004 | 50 | 225 | 0.0 | 6.1 | 0.00 | 0.00 | 0.00 | 86 | 1099.8 |
| 20260505050504 | 50 | 225 | 0.9 | 7.0 | 0.00 | 0.00 | 0.00 | 86 | 1099.8 |
| 20260505041504 | 51 | 214 | 2.6 | 7.8 | 0.00 | 0.00 | 0.00 | 85 | 1099.8 |
| 20260505041005 | 51 | 209 | 2.6 | 10.4 | 0.00 | 0.00 | 0.00 | 85 | 1099.8 |
| 20260505040504 | 51 | 189 | 1.7 | 8.7 | 0.00 | 0.00 | 0.00 | 84 | 1099.8 |
| 20260505040005 | 51 | 184 | 2.6 | 6.1 | 0.00 | 0.00 | 0.00 | 84 | 1099.8 |
| 20260505035504 | 51 | 172 | 2.6 | 7.8 | 0.00 | 0.00 | 0.00 | 84 | 1099.8 |
| 20260505035004 | 51 | 212 | 3.5 | 7.0 | 0.00 | 0.00 | 0.00 | 84 | 1099.8 |
| 20260505034504 | 51 | 218 | 0.9 | 6.1 | 0.00 | 0.00 | 0.00 | 84 | 1099.8 |
| 20260505034004 | 51 | 219 | 1.7 | 6.1 | 0.00 | 0.00 | 0.00 | 83 | 1099.8 |
| 20260505033505 | 51 | 206 | 2.6 | 7.8 | 0.00 | 0.00 | 0.00 | 83 | 1099.8 |